SCP
0 0 0 0 0 0 0 0 0 0 0 0 0 0 0 0 0 0 0 0 0 0 0 0 0 0 0 0 0 0 0 0 0 0 0 0 0 0 0 0 0 0 0 0
0 0 0 0 0 0 0 0 0 0 0 0 0 0 0 0 0 0 0 0 0 0 0 0 0 0 0 0 0 0 0 0 0 0 0 0 0 0 0 0 0 0 0 0
0 0 0 0 0 0 0 0 0 0 0 0 0 0 0 0 0 0 0 0 0 0 0 0 0 0 0 0 0 0 0 0 0 0 0 0 0 0 0 0 0 0 0 0
0 0 0 0 0 0 0 0 0 0 0 0 0 0 0 0 0 0 0 0 0 0 0 0 0 0 0 0 0 0 0 0 0 0 0 0 0 0 0 0 0 0 0 0
0 0 0 0 0 0 0 0 0 0 0 0 0 0 0 0 0 0 -0 0 0 0 0 0 0 0 0 0 0 0 0 0 0 0 0 0 0 0 0 0 0 0 0 0
0 0 0 0 0 0 0 0 0 0 0 0 0 0 0 0 0 0 0 0 0 0 0 0 0 0 0 0 0 0 0 0 0 0 0 0 0 0 0 0 0 0 0 0
0 0 0 0 0 0 0 0 0 0 0 0 0 0 0 0 0 0 0 0 0 0 0 0 0 0 0 0 0 0 0 0 0 0 0 0 0 0 0 0 0 0 0 0
0 0 0 0 0 0 0 0 0 0 0 0 0 0 0 0 0 0 0 0 0 0 0 0 0 0 0 0 0 0 0 0 0 0 0 0 0 0 0 0 0 0 0 0
0 0 0 0 0 0 0 0 0 0 0 0 0 0 0 0 0 0 0 0 0 0 0 0 0 0 0 0 0 0 0 0 0 0 0 0 0 0 0 0 0 0 0 0
0 0 0 0 0 0 0 0 0 0 0 0 0 0 0 0 0 0 0 0 0 0 0 0 0 -0 0 0 0 0 0 0 0 0 0 0 0 0 0 0 0 0 0 0
0 0 0 0 0 0 0 0 0 0 0 0 0 0 0 0 0 0 0 0 0 0 0 0 0 0 0 0 0 0 0 0 0 0 0 0 0 0 0 0 0 0 0 0
0 0 0 0 0 0 0 0 0 0 0 0 0 0 0 0 0 0 0 0 0 0 0 0 0 0 0 0 0 0 0 0 0 0 0 0 0 0 0 0 0 0 0 0
0 0 0 0 0 0 0 0 0 0 0 0 0 0 0 0 0 0 0 0 0 0 0 0 0 0 0 0 0 0 0 0 0 0 0 0 0 0 0 0 0 0 0 0
0 0 0 0 0 0 0 0 0 0 0 0 0 0 0 0 0 0 0 0 0 0 0 0 0 0 0 0 0 0 0 0 0 0 0 0 0 0 0 0 0 0 0 0
0 0 0 0 0 0 0 0 0 0 0 0 0 0 0 0 0 0 0 0 0 0 0 0 0 0 0 0 0 0 0 0 0 0 0 0 0 0 0 0 0 0 0 0
0 0 0 0 0 0 0 0 0 0 0 0 0 0 0 0 0 0 0 0 0 0 0 0 0 0 0 0 0 0 0 0 0 0 0 0 0 0 0 0 0 0 0 0
0 0 0 0 0 0 0 0 0 0 0 0 0 0 0 0 0 0 0 0 0 0 0 0 0 0 0 0 0 0 0 0 0 0 0 0 0 0 0 0 0 0 0 0
0 0 0 0 0 0 0 0 0 0 0 0 0 0 0 0 0 0 0 0 0 0 0 0 0 0 0 0 0 0 0 0 0 0 0 0 0 0 0 0 0 0 0 0
-0 0 0 0 0 0 0 0 0 0 0 0 0 0 0 0 0 0 0 0 0 0 0 0 0 0 0 0 0 0 0 0 0 0 0 0 0 0 0 0 0 0 0 0
0 0 0 0 0 0 0 0 0 0 0 0 0 0 0 0 0 0 0 0 0 0 0 0 0 0 0 0 0 0 0 0 0 0 0 0 0 0 0 0 0 0 0 0
0 0 0 0 0 0 0 0 0 0 0 0 0 0 0 0 0 0 0 0 0 0 0 0 0 0 0 0 0 0 0 0 0 0 0 0 0 0 0 0 0 0 0 0
0 0 0 0 0 0 0 0 0 0 0 0 0 0 0 0 0 0 0 0 0 0 0 0 0 0 0 0 0 0 0 0 0 0 0 0 0 0 0 0 0 0 0 0
0 0 0 0 0 0 0 0 0 0 0 0 0 0 0 0 0 0 0 0 0 0 0 0 0 0 0 0 0 0 0 0 0 0 0 0 0 0 0 0 0 0 0 0
0 0 0 0 0 0 0 0 0 0 0 0 0 -0 -0 -0 0 0 0 0 0 0 0 0 0 0 0 0 0 0 0 -0 -0 0 0 0 0 0 0 0 0 0 0 0
0 0 0 0 0 0 0 0 0 0 0 0 0 -0 -0 -0 0 0 0 0 0 0 0 0 0 0 0 0 0 0 0 -0 -0 0 0 0 0 0 0 0 0 0 0 0
0 0 0 0 0 0 0 0 0 0 0 0 0 -0 0 0 0 0 0 0 0 0 0 0 0 0 0 0 0 0 0 0 0 0 0 0 0 0 0 0 0 0 0 0
0 0 0 0 0 0 0 0 0 0 0 0 0 0 0 0 0 0 0 0 0 0 0 0 0 0 0 0 0 0 0 0 0 0 0 0 0 0 0 0 0 0 0 0
Wind_Speed
13 14 14 15 15 13 14 14 15 17 19 18 12 10 10 10 9 9 8 7 6 5 5 5 4 4 4 5 4 4 4 3 3 4 4 3 4 4 5 5 6 6 6 7
13 13 15 18 17 17 18 18 19 20 22 15 12 10 10 9 8 8 8 7 6 6 5 5 5 5 5 5 5 4 4 4 4 4 4 3 3 3 3 4 4 5 6 6
9 10 13 15 14 17 17 16 16 20 19 12 11 10 9 8 7 6 6 6 5 5 5 5 5 5 5 5 4 4 4 5 4 4 4 3 3 3 4 4 4 4 5 5
6 6 13 10 6 11 14 15 13 13 11 9 9 8 7 6 6 6 6 5 5 4 5 5 5 5 5 4 4 4 4 5 5 4 4 4 3 3 3 3 3 4 4 4
5 8 13 9 8 7 9 11 8 10 8 7 6 7 6 4 4 5 5 5 5 4 5 5 6 5 4 4 4 4 5 5 5 4 4 4 3 3 3 2 2 3 3 3
7 8 10 5 2 3 4 8 4 4 5 5 5 5 5 5 6 6 6 5 6 6 6 6 6 5 4 4 4 4 5 5 5 4 4 4 3 3 2 1 2 2 2 2
12 11 11 7 3 1 4 6 2 2 4 4 5 5 5 5 6 5 5 5 6 6 5 6 6 5 4 4 5 5 4 5 5 4 4 4 3 2 2 1 1 1 1 1
8 11 12 4 2 4 5 4 5 5 5 5 5 5 6 5 6 5 5 5 5 5 5 6 5 5 4 4 4 4 4 4 4 4 4 3 3 3 2 1 1 1 1 1
9 9 6 3 4 5 4 5 6 6 6 5 6 6 6 6 6 6 5 5 4 5 6 6 5 4 4 5 4 4 4 4 4 4 3 3 2 2 2 1 1 1 1 1
10 9 8 7 7 7 6 6 5 5 5 5 6 7 6 6 6 5 5 5 4 5 6 6 5 4 4 4 4 4 4 4 4 3 3 3 2 2 2 2 2 1 1 1
13 12 10 9 8 7 6 6 6 6 6 6 7 7 7 6 6 5 4 4 4 4 5 6 6 5 5 4 4 4 4 4 4 3 3 3 3 2 3 2 3 2 2 1
13 9 8 8 5 6 7 6 6 6 6 5 5 7 7 6 5 4 4 4 4 4 5 5 5 6 5 4 4 3 4 4 3 3 3 2 2 3 4 3 4 4 2 2
12 9 9 9 7 6 6 6 5 5 5 5 5 5 5 5 5 4 4 4 4 5 5 5 5 6 5 4 4 4 4 4 3 3 3 3 2 2 3 4 4 3 2 2
8 8 9 7 6 5 5 5 4 4 4 4 4 4 4 5 4 4 4 4 4 5 5 5 5 5 5 5 4 4 4 4 4 3 3 3 3 3 2 2 3 3 3 2
7 6 6 5 4 4 3 3 3 4 4 4 4 4 4 4 5 5 4 4 4 5 5 5 5 5 5 5 5 5 4 3 3 3 3 3 3 2 2 1 2 2 2 2
5 5 5 5 4 3 3 3 3 4 4 4 4 4 4 4 4 4 4 3 4 5 5 5 5 5 5 5 5 4 3 5 5 3 3 2 2 2 1 1 1 1 1 1
4 5 4 4 4 4 3 3 3 4 4 4 4 4 4 4 4 4 4 4 4 4 4 5 5 5 5 4 4 3 3 4 6 4 2 2 2 1 1 1 1 1 1 1
3 3 2 2 3 3 3 3 3 3 4 4 4 3 3 4 4 5 4 4 4 4 4 4 4 4 4 4 4 3 3 3 3 2 2 2 2 1 1 1 1 1 1 1
1 1 1 1 1 1 2 3 3 3 3 3 3 4 4 4 4 4 4 4 4 5 5 4 7 5 4 5 5 3 3 3 2 2 2 3 2 1 1 1 1 1 1 0
1 1 1 1 1 1 2 2 2 2 2 3 3 3 3 3 3 4 4 3 3 3 4 5 5 4 4 4 6 3 3 2 2 2 2 1 1 1 1 1 1 1 0 0
1 1 1 1 1 2 2 2 2 2 3 3 3 3 3 4 4 3 3 4 4 4 4 6 4 3 3 4 5 3 2 2 2 2 2 1 1 1 1 1 1 1 1 1
1 1 1 1 1 2 2 2 2 2 3 3 3 3 3 3 4 3 3 3 3 5 4 3 3 4 6 6 3 2 2 2 2 2 2 2 1 1 1 1 1 1 1 0
1 1 1 1 1 2 2 2 2 2 3 3 3 3 3 3 3 3 4 3 3 5 4 3 4 7 7 4 2 2 2 2 2 2 2 2 2 1 1 1 1 1 0 0
1 1 1 1 1 1 2 2 2 2 3 3 3 3 3 3 3 2 2 4 6 6 3 4 6 7 6 2 2 2 2 2 2 2 2 2 2 1 1 1 1 1 1 1
0 0 1 1 1 2 2 2 3 3 3 2 3 3 2 2 2 3 2 3 5 5 3 5 7 7 4 2 2 2 2 2 2 2 1 2 2 2 1 1 1 1 1 1
1 1 1 1 2 2 2 2 2 2 2 3 3 2 2 2 2 2 2 2 3 4 3 3 3 4 2 2 2 2 2 2 2 2 2 2 2 2 1 1 1 1 1 1
1 1 1 1 1 1 2 2 2 2 2 2 3 3 2 2 2 2 2 2 2 2 2 2 2 2 2 2 2 2 2 2 2 2 2 1 1 1 1 1 1 1 1 1
Wind_Direction
262 273 275 271 267 257 248 249 257 267 272 278 283 292 296 299 303 307 309 316 320 320 320 324 328 326 324 322 324 330 315 293 284 281 264 248 240 239 237 232 232 226 221 222
270 269 271 270 264 259 255 254 257 265 269 272 281 284 287 290 298 303 309 318 324 325 327 328 327 325 328 327 326 334 322 309 303 301 291 269 250 247 242 237 232 227 222 220
270 276 283 265 248 247 248 246 249 257 264 277 282 286 291 297 301 302 307 311 316 323 326 324 320 321 321 315 316 322 317 318 315 308 298 286 273 254 241 237 231 227 220 220
272 280 249 248 242 244 253 256 254 261 271 272 277 288 293 295 301 308 313 315 314 317 317 315 319 319 318 319 323 322 318 317 315 312 305 301 286 267 257 242 229 229 220 215
241 252 268 267 258 252 256 264 258 267 278 293 308 307 297 324 341 340 340 338 330 323 319 322 322 317 318 323 322 320 315 314 314 315 309 303 291 273 261 257 251 241 220 212
234 246 255 257 295 308 291 273 268 272 291 309 322 300 296 343 343 339 337 337 333 326 320 316 312 315 318 320 318 314 315 316 315 316 314 310 298 287 274 259 264 266 242 225
236 249 261 264 277 329 241 263 326 318 306 305 288 275 300 322 325 326 324 322 320 318 315 309 313 318 312 314 311 313 318 316 316 319 315 310 307 304 294 272 266 269 253 252
222 239 249 239 223 216 245 304 314 310 303 294 287 292 304 306 306 306 308 314 319 317 312 312 317 318 311 309 313 320 319 316 318 323 324 326 319 314 309 276 239 243 235 264
216 232 259 253 248 256 278 289 292 293 296 292 288 291 299 300 300 301 306 310 316 314 312 313 317 320 316 316 322 323 322 318 319 322 322 322 319 316 323 306 258 242 216 239
260 258 264 278 285 284 284 287 291 294 293 292 289 293 295 294 295 296 302 310 316 317 315 317 325 330 321 322 327 327 317 314 316 320 323 331 333 327 320 305 280 253 222 231
263 271 278 268 269 281 291 294 295 294 291 291 292 291 291 290 289 292 304 312 315 314 312 317 326 327 328 329 328 319 312 314 319 319 319 328 334 329 313 301 290 277 256 229
260 263 264 272 274 292 293 288 288 291 290 291 294 294 298 294 296 303 312 316 317 314 312 315 317 317 322 327 328 321 317 318 316 315 318 322 327 333 342 329 333 320 302 278
266 273 273 279 284 290 287 287 287 288 290 298 302 303 306 308 311 314 314 314 314 314 311 310 312 316 325 337 335 325 314 311 312 314 314 318 320 321 330 349 358 354 350 329
267 274 274 276 281 290 293 295 295 295 298 303 308 307 305 304 307 310 309 312 316 316 314 314 316 320 331 334 328 318 312 313 312 306 306 307 307 308 309 317 329 342 352 353
264 264 272 286 293 302 309 313 309 304 308 309 308 303 301 299 300 302 307 316 317 312 312 316 316 321 331 332 326 319 316 313 311 308 309 306 305 306 305 320 324 320 337 354
271 273 277 282 288 299 310 306 296 293 299 304 303 305 304 298 297 302 308 313 308 303 308 310 310 315 323 324 321 317 314 315 316 312 312 310 309 308 316 332 324 311 314 326
259 263 266 276 282 290 294 295 294 298 304 304 302 308 308 305 303 303 306 307 298 294 300 303 307 316 318 319 317 310 310 314 318 316 308 304 307 312 315 309 310 314 308 304
247 258 270 276 276 287 302 310 310 308 304 306 309 304 299 297 297 301 305 309 308 308 309 309 315 319 320 322 319 308 308 308 308 305 305 310 320 321 319 319 327 314 308 324
313 309 313 313 316 313 310 312 311 310 314 314 305 297 294 293 297 299 302 305 305 308 314 320 325 328 323 322 322 310 309 308 310 311 313 319 328 330 328 322 318 304 297 344
27 16 15 11 13 344 323 324 327 327 325 319 313 310 307 307 307 302 300 295 297 301 308 319 322 320 321 319 324 318 314 311 312 317 322 316 309 311 315 311 313 315 341 25
37 32 31 32 14 2 351 345 340 329 327 324 312 304 303 306 307 305 302 301 313 325 324 327 331 323 321 323 329 326 320 317 320 318 315 313 317 320 323 328 333 334 352 29
33 38 25 22 17 358 355 359 349 333 325 322 319 316 311 305 304 302 293 291 305 320 327 318 317 318 324 329 327 325 319 318 320 324 328 326 323 320 325 329 329 331 356 47
29 31 22 13 358 338 341 344 336 319 308 306 308 306 299 294 294 296 301 310 313 319 325 312 314 321 329 336 330 323 323 327 328 330 328 325 319 316 318 322 322 328 18 105
31 22 4 353 351 337 319 316 315 304 293 292 290 287 286 293 297 291 290 307 318 321 323 318 324 330 336 341 334 333 338 338 332 335 334 332 333 334 339 339 344 5 70 91
9 352 353 340 316 298 301 310 310 306 304 300 299 299 294 285 286 300 306 304 313 323 321 320 329 334 339 337 338 341 340 339 340 345 348 349 349 355 2 7 14 16 56 79
269 276 271 267 274 285 291 295 298 303 309 311 312 312 309 307 303 307 312 315 315 324 325 317 321 332 343 343 346 344 339 336 341 349 352 354 358 358 5 21 23 20 53 83
276 280 280 288 299 299 296 295 294 295 296 299 305 310 313 314 318 320 320 322 321 319 317 319 325 333 339 342 343 342 340 340 343 345 350 358 358 356 7 13 13 31 74 101